OBJECT AV

基本信息
目录编号:
67291
目录名称:
OBJECT AV
国际标识:
2025-313AV
轨道中心:
EARTH
物体状态:
在轨
发射日期:
2025-12-28 UTC
国别:
(TBD)
轨道信息
数据来源: 国际轨道数据
星历时间: 2026-09-03T12:23:51+0800
半长轴: 6859.512km
偏心率: 0.0009938
轨道倾角: 97.386°
近地点辐角: 81.845°
升交点赤经: 320.659°
平近点角: 278.391°
近地点: 474.558km
远地点: 488.192km
周期: 94.232分钟
每日圈数: 15.281395
详细信息
发射场:
VOSTO
轨道高度:
LEO
数据来源:
AOE Integration Group
参考系:
TEME
时间系统:
UTC
历元类型:
SGP4
2D轨道图
3D轨道图
轨道高度分析图
轨道倾角分析图
轨道综合分析图
查看轨道综合分析图